Location: Albany
(35.0000°S, 118.0000°E)
Time: 05:04:39
(UTC-04:00)

Vanguard 3 - Visible Passes

Search period start: 30 July 2014 00:00
Search period end: 09 August 2014 00:00
Orbit: 508 x 3279 km, 33.3° (Epoch: 29 July)

Date Brightness Start Highest point End Pass type
(mag) Time Alt. Az. Time Alt. Az. Time Alt. Az.
30 Jul 9.7 07:46:10 10° W 07:55:16 28° NW 08:00:11 14° N visible
31 Jul 9.6 06:30:15 10° W 06:43:35 47° NNW 06:51:16 10° NE visible
01 Aug 10.0 07:33:53 10° W 07:43:01 25° NW 07:49:09 10° N visible
02 Aug 10.0 06:17:31 10° W 06:31:19 43° NW 06:39:32 10° NNE visible
03 Aug 10.3 07:21:41 10° W 07:30:40 22° NW 07:36:57 10° N visible
04 Aug 10.3 06:04:49 10° W 06:18:55 39° NW 06:27:40 10° NNE visible
05 Aug 10.6 07:09:38 10° W 07:18:11 19° NW 07:24:29 10° N visible
06 Aug 10.5 05:52:09 10° W 06:06:22 35° NW 06:15:37 10° NNE visible
07 Aug 10.9 06:57:52 10° W 07:05:35 16° NW 07:11:38 10° NNW visible
07 Aug 11.6 18:34:04 10° NE 18:37:10 11° NE 18:40:32 10° ENE visible
08 Aug 10.8 05:39:35 10° W 05:53:41 31° NW 06:03:22 10° NNE visible
